Miscellaneous Local Product
Issued by NWS North Platte, NE

Home | Current Version | Previous Version | Graphics & Text | Print | Product List | Glossary On
Versions: 1 2 3 4 5 6 7 8 9 10 11 12 13 14 15 16 17 18 19 20 21 22 23 24 25 26 27 28 29 30 31 32 33 34 35 36 37 38 39 40 41 42 43 44 45 46 47 48 49 50
000
AXUS43 KLBF 191310
MISLBF


WESTERN AND NORTH CENTRAL NEBRASKA HOURLY WEATHER ROUNDUP
NATIONAL WEATHER SERVICE NORTH PLATTE NE
800 AM CDT SUN APR 19 2015

***STATIONS NOT REPORTING VARIABLES SUCH AS SKY/WEATHER OR
PRESSURE ARE PROVIDED BY THE NEBRASKA DEPARTMENT OF
ROADS...RAWS...AND APRS NETWORKS...AND ARE NOT UNDER
NATIONAL WEATHER SERVICE QUALITY CONTROL***

...OBSERVATIONS IN AND NEAR THE EASTERN PANHANDLE OF NEBRASKA...

CITY           SKY/WX    TMP DP  RH WIND       PRES   REMARKS
PINE RIDGE     CLEAR     39  27  62 NW14G21   30.07R WCI  31
CHADRON        CLEAR     35  31  85 NW10      30.11R WCI  27
ALLIANCE       CLEAR     37  31  78 NW15      30.06R WCI  28
SIDNEY         PTCLDY    38  31  76 N18       30.07R WCI  28
WHITECLAY        N/A     35  27  72 N9          N/A  WCI  28
CRESCENT LAKE    N/A     39  33  78 N16         N/A  WCI  30
BIG SPRINGS      N/A     44  38  81 NW16        N/A
$$

...OBSERVATIONS IN NORTH CENTRAL NEBRASKA...

CITY           SKY/WX    TMP DP  RH WIND       PRES   REMARKS
VALENTINE      PTSUNNY   43  35  73 NW17      29.98R
THEDFORD       CLOUDY    44  39  83 N15G22    29.97R
AINSWORTH      CLOUDY    44  40  86 N20       29.95R
O`NEILL        CLOUDY    48  44  85 NW28G36   29.87R
ORD            LGT RAIN  48  44  86 N18G30    29.84R
BROKEN BOW     LGT RAIN  47  41  80 N33G46    29.86R
BROWNLEE         N/A     47  40  75 NW23        N/A
SPRINGVIEW       N/A     45  39  80 NW13G21     N/A
BREWSTER         N/A     45  40  82 E20         N/A
ROSE             N/A     45  41  87 SW24        N/A
NEWPORT          N/A     44  40  83 NW26        N/A
SARGENT          N/A     46  42  87 N9G20       N/A
COMSTOCK         N/A     49  47  95 E23         N/A
EWING            N/A     48  46  92 N12G21      N/A
$$

...OBSERVATIONS IN SOUTHWEST NEBRASKA AND FAR NORTHEAST COLORADO...

CITY           SKY/WX    TMP DP  RH WIND       PRES   REMARKS
WRAY           CLOUDY    43  37  80 N24G32    30.01R
HOLYOKE        FAIR      43  36  75 N25G33    30.03R
IMPERIAL       CLOUDY    45  37  73 N26G39    29.98R
OGALLALA       CLOUDY    44  35  72 N26G33    30.01R
NORTH PLATTE   CLOUDY    45  38  76 N25G33    29.92R
MCCOOK         RAIN      49  45  86 N16G25    29.90R FOG
LEXINGTON      LGT RAIN  48  46  90 N26G36    29.85R
PAXTON           N/A     46  40  81 N17         N/A
SUTHERLAND       N/A     40  35  83 E17         N/A  WCI  32
BRADY            N/A     44  39  83 SW5G16      N/A
GOTHENBURG       N/A     47  43  86 N16         N/A
CALLAWAY         N/A     46  45  95 N21         N/A
$$

...NORTH PLATTE AREA...

CITY           SKY/WX    TMP DP  RH WIND       PRES   REMARKS
AIRPORT        CLOUDY    45  38  76 N25G33    29.92R
DOWNTOWN         N/A     45  39  81 N12G26      N/A
$$

...SOME WEATHER OBSERVATIONS FROM AROUND THE REGION...

CITY           SKY/WX    TMP DP  RH WIND       PRES   REMARKS
DENVER         MOCLDY    35  28  75 N22G29    30.13R WCI  23
LARAMIE        FLURRIES  26  23  88 N9        30.14S WCI  17
CHEYENNE       CLOUDY    31  22  69 N18G26    30.12R WCI  19
SCOTTSBLUFF    PTCLDY    38  32  79 NW17      30.12R WCI  28
RAPID CITY     CLEAR     37  25  61 NW18      30.08R WCI  27
PIERRE         SUNNY     42  35  76 NW17      29.94R
WINNER         FAIR      45  36  70 NW17G30   29.94R
SIOUX FALLS    CLOUDY    50  48  93 NW18G25   29.75R
OMAHA          RAIN      56  55  97 W9        29.72F FOG
GRAND ISLAND   RAIN      49  46  90 N21       29.83R FOG
KANSAS CITY    CLOUDY    54  53  97 N5        29.70S
WICHITA        PTSUNNY   50  49  96 SW3       29.77R
HAYS           CLOUDY    52  43  71 N9        29.81R
LIBERAL        PTSUNNY   46  37  71 NW14      29.84R
GOODLAND       LGT RAIN  43  42  97 N30G37    29.95R
$$



USA.gov is the U.S. government's official web portal to all federal, state and local government web resources and services.